Time,TemperatureF,DewpointF,PressureIn,WindDirection,WindDirectionDegrees,WindSpeedMPH,WindSpeedGustMPH,Humidity,HourlyPrecipIn,Conditions,Clouds,dailyrainin,SoftwareType,DateUTC
2013-05-11 00:00:00,61.3,53.3,29.75,SW,225,2.0,13.0,75,0.00,,,-99.99,WeatherLink 5.6,2013-05-11 04:00:00,
2013-05-11 00:30:00,61.4,52.7,29.74,SW,225,4.0,15.0,73,0.00,,,-99.99,WeatherLink 5.6,2013-05-11 04:30:00,
2013-05-11 01:00:00,60.6,52.6,29.73,SW,225,3.0,16.0,75,0.00,,,-99.99,WeatherLink 5.6,2013-05-11 05:00:00,
2013-05-11 01:30:00,60.5,52.5,29.73,SW,225,4.0,17.0,75,0.00,,,-99.99,WeatherLink 5.6,2013-05-11 05:30:00,
2013-05-11 02:00:00,60.6,52.3,29.72,SW,225,4.0,16.0,74,0.00,,,-99.99,WeatherLink 5.6,2013-05-11 06:00:00,
2013-05-11 02:30:00,60.3,52.3,29.72,WSW,247,3.0,14.0,75,0.00,,,-99.99,WeatherLink 5.6,2013-05-11 06:30:00,
2013-05-11 03:00:00,59.6,52.7,29.71,WSW,247,1.0,13.0,78,0.00,,,-99.99,WeatherLink 5.6,2013-05-11 07:00:00,
2013-05-11 03:30:00,59.1,52.9,29.72,West,270,1.0,11.0,80,0.00,,,-99.99,WeatherLink 5.6,2013-05-11 07:30:00,
2013-05-11 04:00:00,59.0,53.5,29.71,WSW,247,2.0,10.0,82,0.00,,,-99.99,WeatherLink 5.6,2013-05-11 08:00:00,
2013-05-11 04:30:00,57.1,53.6,29.71,SW,225,4.0,18.0,88,0.00,,,-99.99,WeatherLink 5.6,2013-05-11 08:30:00,
2013-05-11 05:00:00,56.9,53.7,29.71,WSW,247,4.0,17.0,89,0.01,,,-99.99,WeatherLink 5.6,2013-05-11 09:00:00,
2013-05-11 05:30:00,56.0,53.7,29.70,SW,225,2.0,14.0,92,0.04,,,-99.99,WeatherLink 5.6,2013-05-11 09:30:00,
2013-05-11 06:00:00,56.1,53.8,29.72,SW,225,3.0,15.0,92,0.04,,,-99.99,WeatherLink 5.6,2013-05-11 10:00:00,
2013-05-11 06:30:00,55.9,54.2,29.72,SSW,202,2.0,11.0,94,0.02,,,-99.99,WeatherLink 5.6,2013-05-11 10:30:00,
2013-05-11 07:00:00,55.6,53.9,29.72,South,180,1.0,10.0,94,0.02,,,-99.99,WeatherLink 5.6,2013-05-11 11:00:00,
2013-05-11 07:30:00,55.8,54.4,29.72,South,180,1.0,7.0,95,0.01,,,-99.99,WeatherLink 5.6,2013-05-11 11:30:00,
2013-05-11 08:00:00,55.9,54.8,29.72,SSW,202,0.0,3.0,96,0.05,,,-99.99,WeatherLink 5.6,2013-05-11 12:00:00,
2013-05-11 08:30:00,56.5,55.1,29.73,South,180,0.0,6.0,95,0.05,,,-99.99,WeatherLink 5.6,2013-05-11 12:30:00,
2013-05-11 09:00:00,58.4,57.3,29.73,South,180,0.0,4.0,96,0.01,,,-99.99,WeatherLink 5.6,2013-05-11 13:00:00,
2013-05-11 09:30:00,57.8,56.1,29.74,SW,225,1.0,8.0,94,0.01,,,-99.99,WeatherLink 5.6,2013-05-11 13:30:00,
2013-05-11 10:00:00,58.2,55.9,29.73,West,270,0.0,2.0,92,0.00,,,-99.99,WeatherLink 5.6,2013-05-11 14:00:00,
2013-05-11 10:30:00,57.9,55.6,29.73,West,270,0.0,3.0,92,0.00,,,-99.99,WeatherLink 5.6,2013-05-11 14:30:00,
2013-05-11 11:00:00,59.5,57.2,29.73,SW,225,1.0,7.0,92,0.00,,,-99.99,WeatherLink 5.6,2013-05-11 15:00:00,
2013-05-11 11:30:00,59.0,57.0,29.73,SSE,157,1.0,4.0,93,0.00,,,-99.99,WeatherLink 5.6,2013-05-11 15:30:00,
2013-05-11 12:00:00,60.0,57.4,29.72,South,180,2.0,10.0,91,0.00,,,-99.99,WeatherLink 5.6,2013-05-11 16:00:00,
2013-05-11 12:30:00,60.3,57.7,29.72,South,180,4.0,14.0,91,0.00,,,-99.99,WeatherLink 5.6,2013-05-11 16:30:00,
2013-05-11 13:00:00,63.8,58.9,29.69,South,180,3.0,13.0,84,0.00,,,-99.99,WeatherLink 5.6,2013-05-11 17:00:00,
2013-05-11 13:30:00,64.6,59.3,29.68,South,180,2.0,12.0,83,0.00,,,-99.99,WeatherLink 5.6,2013-05-11 17:30:00,
2013-05-11 14:00:00,64.5,58.9,29.68,WSW,247,3.0,13.0,82,0.00,,,-99.99,WeatherLink 5.6,2013-05-11 18:00:00,
2013-05-11 14:30:00,64.1,58.8,29.67,South,180,2.0,10.0,83,0.00,,,-99.99,WeatherLink 5.6,2013-05-11 18:30:00,
2013-05-11 15:00:00,64.7,59.4,29.66,SSW,202,3.0,16.0,83,0.00,,,-99.99,WeatherLink 5.6,2013-05-11 19:00:00,
2013-05-11 15:30:00,62.4,58.2,29.66,NW,315,5.0,17.0,86,0.00,,,-99.99,WeatherLink 5.6,2013-05-11 19:30:00,
2013-05-11 16:00:00,59.2,56.3,29.68,NW,315,3.0,10.0,90,0.10,,,-99.99,WeatherLink 5.6,2013-05-11 20:00:00,
2013-05-11 16:30:00,59.8,57.8,29.68,WSW,247,0.0,6.0,93,0.18,,,-99.99,WeatherLink 5.6,2013-05-11 20:30:00,
2013-05-11 17:00:00,61.4,58.7,29.67,North,-999,0.0,0.0,91,0.08,,,-99.99,WeatherLink 5.6,2013-05-11 21:00:00,
2013-05-11 17:30:00,61.1,58.1,29.67,NW,315,1.0,11.0,90,0.01,,,-99.99,WeatherLink 5.6,2013-05-11 21:30:00,
2013-05-11 18:00:00,60.0,57.4,29.68,WNW,292,3.0,17.0,91,0.02,,,-99.99,WeatherLink 5.6,2013-05-11 22:00:00,
2013-05-11 18:30:00,60.5,56.3,29.68,NW,315,6.0,18.0,86,0.01,,,-99.99,WeatherLink 5.6,2013-05-11 22:30:00,
2013-05-11 19:00:00,59.0,55.4,29.68,NW,315,7.0,19.0,88,0.00,,,-99.99,WeatherLink 5.6,2013-05-11 23:00:00,
2013-05-11 19:30:00,57.8,54.6,29.70,NW,315,7.0,21.0,89,0.00,,,-99.99,WeatherLink 5.6,2013-05-11 23:30:00,
2013-05-11 20:00:00,56.6,53.1,29.72,NW,315,7.0,19.0,88,0.00,,,-99.99,WeatherLink 5.6,2013-05-12 00:00:00,
2013-05-11 20:30:00,55.4,52.2,29.73,NW,315,5.0,16.0,89,0.00,,,-99.99,WeatherLink 5.6,2013-05-12 00:30:00,
2013-05-11 21:00:00,54.5,50.7,29.74,NW,315,6.0,16.0,87,0.00,,,-99.99,WeatherLink 5.6,2013-05-12 01:00:00,
2013-05-11 21:30:00,53.6,50.7,29.74,NW,315,3.0,13.0,90,0.00,,,-99.99,WeatherLink 5.6,2013-05-12 01:30:00,
2013-05-11 22:00:00,53.2,50.3,29.76,NW,315,3.0,17.0,90,0.00,,,-99.99,WeatherLink 5.6,2013-05-12 02:00:00,
2013-05-11 22:30:00,52.5,49.4,29.76,NW,315,6.0,17.0,89,0.00,,,-99.99,WeatherLink 5.6,2013-05-12 02:30:00,
2013-05-11 23:00:00,51.2,47.5,29.78,NW,315,8.0,17.0,87,0.00,,,-99.99,WeatherLink 5.6,2013-05-12 03:00:00,
2013-05-11 23:30:00,50.1,46.7,29.78,NW,315,8.0,21.0,88,0.00,,,-99.99,WeatherLink 5.6,2013-05-12 03:30:00,